Time,TemperatureF,DewpointF,PressureIn,WindDirection,WindDirectionDegrees,WindSpeedMPH,WindSpeedGustMPH,Humidity,HourlyPrecipIn,Conditions,Clouds,dailyrainin,SoftwareType,DateUTC
2013-01-14 00:03:00,14.5,9.2,30.25,NNW,337,0.0,0.0,79,0.00,,,0.00,WUHU21623XXSP,2013-01-14 06:03:00,
2013-01-14 00:08:00,14.5,9.2,30.25,NNW,337,0.0,0.0,79,0.00,,,0.00,WUHU21623XXSP,2013-01-14 06:08:00,
2013-01-14 00:13:00,14.4,9.0,30.25,NNW,337,0.0,0.0,79,0.00,,,0.00,WUHU21623XXSP,2013-01-14 06:13:00,
2013-01-14 00:18:00,14.4,9.0,30.26,NNW,337,0.0,0.0,79,0.00,,,0.00,WUHU21623XXSP,2013-01-14 06:18:00,
2013-01-14 00:23:00,14.4,9.0,30.26,NNW,337,0.0,0.0,79,0.00,,,0.00,WUHU21623XXSP,2013-01-14 06:23:00,
2013-01-14 00:29:00,14.4,9.0,30.26,NNW,337,0.0,0.0,79,0.00,,,0.00,WUHU21623XXSP,2013-01-14 06:29:00,
2013-01-14 00:34:00,14.4,9.0,30.26,NNW,337,0.0,0.0,79,0.00,,,0.00,WUHU21623XXSP,2013-01-14 06:34:00,
2013-01-14 00:39:00,14.2,8.8,30.26,NNW,337,0.0,0.0,79,0.00,,,0.00,WUHU21623XXSP,2013-01-14 06:39:00,
2013-01-14 00:44:00,14.2,8.8,30.26,NNW,337,0.0,0.0,79,0.00,,,0.00,WUHU21623XXSP,2013-01-14 06:44:00,
2013-01-14 00:49:00,14.2,8.8,30.27,NNW,337,0.0,0.0,79,0.00,,,0.00,WUHU21623XXSP,2013-01-14 06:49:00,
2013-01-14 00:54:00,14.2,8.8,30.26,NNW,337,0.0,0.0,79,0.00,,,0.00,WUHU21623XXSP,2013-01-14 06:54:00,
2013-01-14 00:59:00,14.2,8.8,30.27,NNW,337,0.0,0.0,79,0.00,,,0.00,WUHU21623XXSP,2013-01-14 06:59:00,
2013-01-14 01:04:00,14.2,8.8,30.27,NNW,337,0.0,0.0,79,0.00,,,0.00,WUHU21623XXSP,2013-01-14 07:04:00,
2013-01-14 01:09:00,14.2,8.8,30.27,NNW,337,0.0,0.0,79,0.00,,,0.00,WUHU21623XXSP,2013-01-14 07:09:00,
2013-01-14 01:14:00,13.8,8.8,30.28,NNW,337,0.0,0.0,80,0.00,,,0.00,WUHU21623XXSP,2013-01-14 07:14:00,
2013-01-14 01:19:00,13.8,8.8,30.29,NNW,337,0.0,0.0,80,0.00,,,0.00,WUHU21623XXSP,2013-01-14 07:19:00,
2013-01-14 01:24:00,13.8,8.8,30.29,NNW,337,0.0,0.0,80,0.00,,,0.00,WUHU21623XXSP,2013-01-14 07:24:00,
2013-01-14 01:29:00,13.8,8.8,30.29,NNW,337,0.0,0.0,80,0.00,,,0.00,WUHU21623XXSP,2013-01-14 07:29:00,
2013-01-14 01:34:00,13.8,8.8,30.29,NNW,337,0.0,0.0,80,0.00,,,0.00,WUHU21623XXSP,2013-01-14 07:34:00,
2013-01-14 01:39:00,13.8,8.8,30.29,NNW,337,0.0,0.0,80,0.00,,,0.00,WUHU21623XXSP,2013-01-14 07:39:00,
2013-01-14 01:44:00,13.8,8.8,30.29,NNW,337,0.0,0.0,80,0.00,,,0.00,WUHU21623XXSP,2013-01-14 07:44:00,
2013-01-14 01:49:00,13.8,8.8,30.31,NNW,337,0.0,0.0,80,0.00,,,0.00,WUHU21623XXSP,2013-01-14 07:49:00,
2013-01-14 01:54:00,13.8,8.8,30.31,NNW,337,0.0,0.0,80,0.00,,,0.00,WUHU21623XXSP,2013-01-14 07:54:00,
2013-01-14 01:59:00,13.6,8.6,30.32,NNW,337,0.0,0.0,80,0.00,,,0.00,WUHU21623XXSP,2013-01-14 07:59:00,
2013-01-14 02:04:00,13.6,8.6,30.32,NNW,337,0.0,0.0,80,0.00,,,0.00,WUHU21623XXSP,2013-01-14 08:04:00,
2013-01-14 02:09:00,13.6,8.6,30.32,NNW,337,0.0,0.0,79,0.00,,,0.00,WUHU21623XXSP,2013-01-14 08:09:00,
2013-01-14 02:14:00,13.6,8.3,30.32,NNW,337,0.0,0.0,79,0.00,,,0.00,WUHU21623XXSP,2013-01-14 08:14:00,
2013-01-14 02:19:00,13.6,8.3,30.32,NNW,337,0.0,0.0,79,0.00,,,0.00,WUHU21623XXSP,2013-01-14 08:19:00,
2013-01-14 02:24:00,13.8,8.5,30.32,NNW,337,0.0,0.0,79,0.00,,,0.00,WUHU21623XXSP,2013-01-14 08:24:00,
2013-01-14 02:29:00,13.6,8.3,30.33,NNW,337,0.0,0.0,79,0.00,,,0.00,WUHU21623XXSP,2013-01-14 08:29:00,
2013-01-14 02:34:00,13.6,8.3,30.33,NNW,337,0.0,0.0,79,0.00,,,0.00,WUHU21623XXSP,2013-01-14 08:34:00,
2013-01-14 02:39:00,13.6,8.3,30.34,NNW,337,0.0,0.0,79,0.00,,,0.00,WUHU21623XXSP,2013-01-14 08:39:00,
2013-01-14 02:45:00,13.6,8.3,30.34,NNW,337,0.0,0.0,79,0.00,,,0.00,WUHU21623XXSP,2013-01-14 08:45:00,
2013-01-14 02:50:00,13.6,8.3,30.34,NNW,337,0.0,0.0,79,0.00,,,0.00,WUHU21623XXSP,2013-01-14 08:50:00,
2013-01-14 02:55:00,13.6,8.3,30.34,NNW,337,0.0,0.0,79,0.00,,,0.00,WUHU21623XXSP,2013-01-14 08:55:00,
2013-01-14 03:00:00,13.6,8.3,30.34,NNW,337,0.0,0.0,79,0.00,,,0.00,WUHU21623XXSP,2013-01-14 09:00:00,
2013-01-14 03:05:00,13.6,8.3,30.34,NNW,337,0.0,0.0,79,0.00,,,0.00,WUHU21623XXSP,2013-01-14 09:05:00,
2013-01-14 03:10:00,13.6,8.6,30.34,NNW,337,0.0,0.0,80,0.00,,,0.00,WUHU21623XXSP,2013-01-14 09:10:00,
2013-01-14 03:15:00,13.6,8.6,30.34,NNW,337,0.0,0.0,80,0.00,,,0.00,WUHU21623XXSP,2013-01-14 09:15:00,
2013-01-14 03:20:00,13.6,8.6,30.34,NNW,337,0.0,0.0,80,0.00,,,0.00,WUHU21623XXSP,2013-01-14 09:20:00,
2013-01-14 03:25:00,13.6,8.6,30.34,NNW,337,0.0,0.0,80,0.00,,,0.00,WUHU21623XXSP,2013-01-14 09:25:00,
2013-01-14 03:30:00,13.6,8.6,30.35,NNW,337,0.0,0.0,80,0.00,,,0.00,WUHU21623XXSP,2013-01-14 09:30:00,
2013-01-14 03:35:00,13.6,8.6,30.35,NNW,337,0.0,0.0,80,0.00,,,0.00,WUHU21623XXSP,2013-01-14 09:35:00,
2013-01-14 03:40:00,13.5,8.4,30.35,NNW,337,0.0,0.0,80,0.00,,,0.00,WUHU21623XXSP,2013-01-14 09:40:00,
2013-01-14 03:45:00,13.3,8.2,30.36,NNW,337,0.0,0.0,80,0.00,,,0.00,WUHU21623XXSP,2013-01-14 09:45:00,
2013-01-14 03:50:00,13.3,8.2,30.35,NNW,337,0.0,0.0,80,0.00,,,0.00,WUHU21623XXSP,2013-01-14 09:50:00,
2013-01-14 03:55:00,13.3,8.2,30.35,NNW,337,0.0,0.0,80,0.00,,,0.00,WUHU21623XXSP,2013-01-14 09:55:00,
2013-01-14 04:00:00,13.3,8.2,30.35,NNW,337,0.0,0.0,80,0.00,,,0.00,WUHU21623XXSP,2013-01-14 10:00:00,
2013-01-14 04:05:00,13.3,8.2,30.36,NNW,337,0.0,0.0,80,0.00,,,0.00,WUHU21623XXSP,2013-01-14 10:05:00,
2013-01-14 04:10:00,13.3,8.5,30.36,NNW,337,0.0,0.0,81,0.00,,,0.00,WUHU21623XXSP,2013-01-14 10:10:00,
2013-01-14 04:15:00,13.3,8.5,30.36,NNW,337,0.0,0.0,81,0.00,,,0.00,WUHU21623XXSP,2013-01-14 10:15:00,
2013-01-14 04:20:00,13.3,8.5,30.35,NNW,337,0.0,0.0,81,0.00,,,0.00,WUHU21623XXSP,2013-01-14 10:20:00,
2013-01-14 04:25:00,13.3,8.5,30.35,NNW,337,0.0,0.0,81,0.00,,,0.00,WUHU21623XXSP,2013-01-14 10:25:00,
2013-01-14 04:30:00,13.3,8.5,30.35,NNW,337,0.0,0.0,81,0.00,,,0.00,WUHU21623XXSP,2013-01-14 10:30:00,
2013-01-14 04:35:00,13.3,8.5,30.35,NNW,337,0.0,0.0,81,0.00,,,0.00,WUHU21623XXSP,2013-01-14 10:35:00,
2013-01-14 04:40:00,13.3,8.5,30.36,NNW,337,0.0,0.0,81,0.00,,,0.00,WUHU21623XXSP,2013-01-14 10:40:00,
2013-01-14 04:45:00,13.3,8.5,30.36,NNW,337,0.0,0.0,81,0.00,,,0.00,WUHU21623XXSP,2013-01-14 10:45:00,
2013-01-14 04:50:00,13.3,8.5,30.35,NNW,337,0.0,0.0,81,0.00,,,0.00,WUHU21623XXSP,2013-01-14 10:50:00,
2013-01-14 04:55:00,13.3,8.5,30.36,NNW,337,0.0,0.0,81,0.00,,,0.00,WUHU21623XXSP,2013-01-14 10:55:00,
2013-01-14 05:00:00,13.3,8.5,30.35,NNW,337,0.0,0.0,81,0.00,,,0.00,WUHU21623XXSP,2013-01-14 11:00:00,
2013-01-14 05:05:00,13.3,8.5,30.36,NNW,337,0.0,0.0,81,0.00,,,0.00,WUHU21623XXSP,2013-01-14 11:05:00,
2013-01-14 05:10:00,13.3,8.5,30.35,NNW,337,0.0,0.0,82,0.00,,,0.00,WUHU21623XXSP,2013-01-14 11:10:00,
2013-01-14 05:15:00,13.3,8.8,30.36,NNW,337,0.0,0.0,82,0.00,,,0.00,WUHU21623XXSP,2013-01-14 11:15:00,
2013-01-14 05:20:00,13.3,8.8,30.36,NNW,337,0.0,0.0,82,0.00,,,0.00,WUHU21623XXSP,2013-01-14 11:20:00,
2013-01-14 05:25:00,13.1,8.6,30.37,NNW,337,0.0,0.0,82,0.00,,,0.00,WUHU21623XXSP,2013-01-14 11:25:00,
2013-01-14 05:31:00,13.3,8.8,30.37,NNW,337,0.0,0.0,82,0.00,,,0.00,WUHU21623XXSP,2013-01-14 11:31:00,
2013-01-14 05:35:00,13.3,8.8,30.37,NNW,337,0.0,0.0,82,0.00,,,0.00,WUHU21623XXSP,2013-01-14 11:35:00,
2013-01-14 05:40:00,13.3,8.5,30.37,NNW,337,0.0,0.0,81,0.00,,,0.00,WUHU21623XXSP,2013-01-14 11:40:00,
2013-01-14 05:45:00,13.3,8.8,30.37,NNW,337,0.0,0.0,82,0.00,,,0.00,WUHU21623XXSP,2013-01-14 11:45:00,
2013-01-14 05:50:00,13.3,8.5,30.38,NNW,337,0.0,0.0,81,0.00,,,0.00,WUHU21623XXSP,2013-01-14 11:50:00,
2013-01-14 05:55:00,13.3,8.5,30.38,NNW,337,0.0,0.0,81,0.00,,,0.00,WUHU21623XXSP,2013-01-14 11:55:00,
2013-01-14 06:01:00,13.3,8.5,30.38,NNW,337,0.0,0.0,81,0.00,,,0.00,WUHU21623XXSP,2013-01-14 12:01:00,
2013-01-14 06:06:00,13.3,8.2,30.39,NNW,337,0.0,0.0,80,0.00,,,0.00,WUHU21623XXSP,2013-01-14 12:06:00,
2013-01-14 06:11:00,13.3,8.2,30.39,NNW,337,0.0,0.0,80,0.00,,,0.00,WUHU21623XXSP,2013-01-14 12:11:00,
2013-01-14 06:16:00,13.6,8.6,30.39,NNW,337,0.0,0.0,80,0.00,,,0.00,WUHU21623XXSP,2013-01-14 12:16:00,
2013-01-14 06:21:00,13.6,8.6,30.39,NNW,337,0.0,0.0,80,0.00,,,0.00,WUHU21623XXSP,2013-01-14 12:21:00,
2013-01-14 06:26:00,13.6,8.6,30.38,NNW,337,0.0,0.0,80,0.00,,,0.00,WUHU21623XXSP,2013-01-14 12:26:00,
2013-01-14 06:31:00,13.6,8.6,30.38,NNW,337,0.0,0.0,80,0.00,,,0.00,WUHU21623XXSP,2013-01-14 12:31:00,
2013-01-14 06:36:00,13.6,8.6,30.38,NNW,337,0.0,0.0,80,0.00,,,0.00,WUHU21623XXSP,2013-01-14 12:36:00,
2013-01-14 06:41:00,13.6,8.6,30.39,NNW,337,0.0,0.0,80,0.00,,,0.00,WUHU21623XXSP,2013-01-14 12:41:00,
2013-01-14 06:46:00,13.6,8.6,30.39,NNW,337,0.0,0.0,80,0.00,,,0.00,WUHU21623XXSP,2013-01-14 12:46:00,
2013-01-14 06:51:00,13.6,8.6,30.38,NNW,337,0.0,0.0,80,0.00,,,0.00,WUHU21623XXSP,2013-01-14 12:51:00,
2013-01-14 06:56:00,13.5,8.4,30.38,NNW,337,0.0,0.0,80,0.00,,,0.00,WUHU21623XXSP,2013-01-14 12:56:00,
2013-01-14 07:01:00,13.3,8.2,30.38,NNW,337,0.0,0.0,80,0.00,,,0.00,WUHU21623XXSP,2013-01-14 13:01:00,
2013-01-14 07:06:00,13.3,8.2,30.38,NNW,337,0.0,0.0,80,0.00,,,0.00,WUHU21623XXSP,2013-01-14 13:06:00,
2013-01-14 07:11:00,13.3,8.2,30.39,NNW,337,0.0,0.0,80,0.00,,,0.00,WUHU21623XXSP,2013-01-14 13:11:00,
2013-01-14 07:16:00,13.1,8.3,30.39,NNW,337,0.0,0.0,81,0.00,,,0.00,WUHU21623XXSP,2013-01-14 13:16:00,
2013-01-14 07:21:00,13.1,8.3,30.39,NNW,337,0.0,0.0,81,0.00,,,0.00,WUHU21623XXSP,2013-01-14 13:21:00,
2013-01-14 07:26:00,13.1,8.3,30.39,NNW,337,0.0,0.0,81,0.00,,,0.00,WUHU21623XXSP,2013-01-14 13:26:00,
2013-01-14 07:31:00,13.1,8.3,30.40,NNW,337,0.0,0.0,81,0.00,,,0.00,WUHU21623XXSP,2013-01-14 13:31:00,
2013-01-14 07:36:00,13.1,8.3,30.41,NNW,337,0.0,0.0,81,0.00,,,0.00,WUHU21623XXSP,2013-01-14 13:36:00,
2013-01-14 07:41:00,13.1,8.5,30.40,NNW,337,0.0,0.0,81,0.00,,,0.00,WUHU21623XXSP,2013-01-14 13:41:00,
2013-01-14 07:46:00,13.3,8.5,30.40,NNW,337,0.0,0.0,81,0.00,,,0.00,WUHU21623XXSP,2013-01-14 13:46:00,
2013-01-14 07:51:00,13.3,8.5,30.41,NNW,337,0.0,0.0,81,0.00,,,0.00,WUHU21623XXSP,2013-01-14 13:51:00,
2013-01-14 07:56:00,13.3,8.5,30.41,NNW,337,0.0,0.0,81,0.00,,,0.00,WUHU21623XXSP,2013-01-14 13:56:00,
2013-01-14 08:01:00,13.3,8.5,30.41,NNW,337,0.0,0.0,81,0.00,,,0.00,WUHU21623XXSP,2013-01-14 14:01:00,
2013-01-14 08:06:00,13.6,8.9,30.41,NNW,337,0.0,0.0,81,0.00,,,0.00,WUHU21623XXSP,2013-01-14 14:06:00,
2013-01-14 08:11:00,13.8,9.1,30.41,NNW,337,0.0,0.0,81,0.00,,,0.00,WUHU21623XXSP,2013-01-14 14:11:00,
2013-01-14 08:16:00,13.8,9.1,30.41,NNW,337,0.0,0.0,81,0.00,,,0.00,WUHU21623XXSP,2013-01-14 14:16:00,
2013-01-14 08:21:00,13.8,9.1,30.41,NNW,337,0.0,0.0,81,0.00,,,0.00,WUHU21623XXSP,2013-01-14 14:21:00,
2013-01-14 08:26:00,14.0,9.0,30.41,NNW,337,0.0,0.0,80,0.00,,,0.00,WUHU21623XXSP,2013-01-14 14:26:00,
2013-01-14 08:31:00,14.2,9.1,30.41,NNW,337,0.0,0.0,80,0.00,,,0.00,WUHU21623XXSP,2013-01-14 14:31:00,
2013-01-14 08:36:00,14.2,9.1,30.41,NNW,337,0.0,0.0,80,0.00,,,0.00,WUHU21623XXSP,2013-01-14 14:36:00,
2013-01-14 08:41:00,14.5,9.5,30.41,NNW,337,0.0,0.0,80,0.00,,,0.00,WUHU21623XXSP,2013-01-14 14:41:00,
2013-01-14 08:46:00,14.7,9.7,30.41,NNW,337,0.0,0.0,80,0.00,,,0.00,WUHU21623XXSP,2013-01-14 14:46:00,
2013-01-14 08:51:00,14.7,9.7,30.41,NNW,337,0.0,0.0,80,0.00,,,0.00,WUHU21623XXSP,2013-01-14 14:51:00,
2013-01-14 08:56:00,14.7,9.7,30.41,NNW,337,0.0,0.0,80,0.00,,,0.00,WUHU21623XXSP,2013-01-14 14:56:00,
2013-01-14 09:01:00,14.9,9.9,30.41,NNW,337,0.0,0.0,80,0.00,,,0.00,WUHU21623XXSP,2013-01-14 15:01:00,
2013-01-14 09:06:00,15.1,10.0,30.40,NNW,337,0.0,0.0,80,0.00,,,0.00,WUHU21623XXSP,2013-01-14 15:06:00,
2013-01-14 09:11:00,15.4,10.2,30.40,NNW,337,0.0,0.0,80,0.00,,,0.00,WUHU21623XXSP,2013-01-14 15:11:00,
2013-01-14 09:16:00,15.6,10.6,30.39,NNW,337,0.0,0.0,80,0.00,,,0.00,WUHU21623XXSP,2013-01-14 15:16:00,
2013-01-14 09:21:00,15.6,10.6,30.39,NNW,337,0.0,0.0,80,0.00,,,0.00,WUHU21623XXSP,2013-01-14 15:21:00,
2013-01-14 09:26:00,16.0,10.9,30.41,NNW,337,0.0,0.0,80,0.00,,,0.00,WUHU21623XXSP,2013-01-14 15:26:00,
2013-01-14 09:32:00,16.2,11.1,30.41,NNW,337,0.0,0.0,80,0.00,,,0.00,WUHU21623XXSP,2013-01-14 15:32:00,
2013-01-14 09:37:00,16.3,11.2,30.41,NNW,337,0.0,0.0,80,0.00,,,0.00,WUHU21623XXSP,2013-01-14 15:37:00,
2013-01-14 09:41:00,16.7,11.6,30.41,NNW,337,0.0,0.0,80,0.00,,,0.00,WUHU21623XXSP,2013-01-14 15:41:00,
2013-01-14 09:47:00,16.7,11.6,30.40,NNW,337,0.0,0.0,80,0.00,,,0.00,WUHU21623XXSP,2013-01-14 15:47:00,
2013-01-14 09:52:00,16.7,11.6,30.40,NNW,337,0.0,0.0,80,0.00,,,0.00,WUHU21623XXSP,2013-01-14 15:52:00,
2013-01-14 09:57:00,17.2,11.7,30.39,NNW,337,0.0,0.0,80,0.00,,,0.00,WUHU21623XXSP,2013-01-14 15:57:00,
2013-01-14 10:02:00,17.2,12.1,30.39,NNW,337,0.0,0.0,80,0.00,,,0.00,WUHU21623XXSP,2013-01-14 16:02:00,
2013-01-14 10:07:00,17.4,12.2,30.40,NNW,337,0.0,0.0,80,0.00,,,0.00,WUHU21623XXSP,2013-01-14 16:07:00,
2013-01-14 10:12:00,17.8,12.6,30.39,NNW,337,0.0,0.0,80,0.00,,,0.00,WUHU21623XXSP,2013-01-14 16:12:00,
2013-01-14 10:17:00,17.8,12.6,30.39,NNW,337,0.0,0.0,80,0.00,,,0.00,WUHU21623XXSP,2013-01-14 16:17:00,
2013-01-14 10:22:00,18.3,13.1,30.39,NNW,337,0.0,0.0,80,0.00,,,0.00,WUHU21623XXSP,2013-01-14 16:22:00,
2013-01-14 10:27:00,18.5,13.1,30.40,NNW,337,0.0,0.0,80,0.00,,,0.00,WUHU21623XXSP,2013-01-14 16:27:00,
2013-01-14 10:32:00,18.5,13.3,30.40,NNW,337,0.0,0.0,80,0.00,,,0.00,WUHU21623XXSP,2013-01-14 16:32:00,
2013-01-14 10:37:00,18.9,13.6,30.40,NNW,337,0.0,0.0,80,0.00,,,0.00,WUHU21623XXSP,2013-01-14 16:37:00,
2013-01-14 10:42:00,19.0,13.8,30.40,NNW,337,0.0,0.0,80,0.00,,,0.00,WUHU21623XXSP,2013-01-14 16:42:00,
2013-01-14 10:47:00,19.2,14.0,30.40,NNW,337,0.0,0.0,79,0.00,,,0.00,WUHU21623XXSP,2013-01-14 16:47:00,
2013-01-14 10:52:00,19.2,13.7,30.40,NNW,337,0.0,0.0,79,0.00,,,0.00,WUHU21623XXSP,2013-01-14 16:52:00,
2013-01-14 10:57:00,19.6,14.1,30.41,NNW,337,0.0,0.0,79,0.00,,,0.00,WUHU21623XXSP,2013-01-14 16:57:00,
2013-01-14 11:02:00,19.8,14.1,30.41,NNW,337,0.0,0.0,79,0.00,,,0.00,WUHU21623XXSP,2013-01-14 17:02:00,
2013-01-14 11:07:00,19.9,14.2,30.41,NNW,337,0.0,0.0,79,0.00,,,0.00,WUHU21623XXSP,2013-01-14 17:07:00,
2013-01-14 11:12:00,19.9,14.4,30.42,NNW,337,0.0,0.0,79,0.00,,,0.00,WUHU21623XXSP,2013-01-14 17:12:00,
2013-01-14 11:17:00,20.3,14.8,30.42,NNW,337,0.0,0.0,79,0.00,,,0.00,WUHU21623XXSP,2013-01-14 17:17:00,
2013-01-14 11:22:00,20.5,15.0,30.41,NNW,337,0.0,0.0,79,0.00,,,0.00,WUHU21623XXSP,2013-01-14 17:22:00,
2013-01-14 11:27:00,20.8,15.3,30.41,NNW,337,0.0,0.0,79,0.00,,,0.00,WUHU21623XXSP,2013-01-14 17:27:00,
2013-01-14 11:32:00,21.0,15.5,30.40,NNW,337,0.0,0.0,79,0.00,,,0.00,WUHU21623XXSP,2013-01-14 17:32:00,
2013-01-14 11:37:00,21.0,15.5,30.40,NNW,337,0.0,0.0,79,0.00,,,0.00,WUHU21623XXSP,2013-01-14 17:37:00,
2013-01-14 11:42:00,21.2,15.9,30.40,NNW,337,0.0,0.0,79,0.00,,,0.00,WUHU21623XXSP,2013-01-14 17:42:00,
2013-01-14 11:47:00,21.7,16.0,30.40,NNW,337,0.0,0.0,79,0.00,,,0.00,WUHU21623XXSP,2013-01-14 17:47:00,
2013-01-14 11:52:00,21.7,16.2,30.40,NNW,337,0.0,0.0,78,0.00,,,0.00,WUHU21623XXSP,2013-01-14 17:52:00,
2013-01-14 11:57:00,21.9,16.1,30.41,NNW,337,0.0,0.0,78,0.00,,,0.00,WUHU21623XXSP,2013-01-14 17:57:00,
2013-01-14 12:02:00,21.9,16.1,30.40,NNW,337,0.0,0.0,78,0.00,,,0.00,WUHU21623XXSP,2013-01-14 18:02:00,
2013-01-14 12:07:00,22.1,16.3,30.40,NNW,337,0.0,0.0,78,0.00,,,0.00,WUHU21623XXSP,2013-01-14 18:07:00,
2013-01-14 12:13:00,21.9,15.8,30.41,NNW,337,0.0,0.0,77,0.00,,,0.00,WUHU21623XXSP,2013-01-14 18:13:00,
2013-01-14 12:17:00,22.3,16.1,30.41,NNW,337,0.0,0.0,77,0.00,,,0.00,WUHU21623XXSP,2013-01-14 18:17:00,
2013-01-14 12:22:00,22.6,16.5,30.41,NNW,337,0.0,0.0,77,0.00,,,0.00,WUHU21623XXSP,2013-01-14 18:22:00,
2013-01-14 12:28:00,22.8,16.5,30.41,NNW,337,0.0,0.0,77,0.00,,,0.00,WUHU21623XXSP,2013-01-14 18:28:00,
2013-01-14 12:33:00,23.2,17.0,30.41,NNW,337,0.0,0.0,77,0.00,,,0.00,WUHU21623XXSP,2013-01-14 18:33:00,
2013-01-14 12:38:00,23.5,17.2,30.41,NNW,337,0.0,0.0,78,0.00,,,0.00,WUHU21623XXSP,2013-01-14 18:38:00,
2013-01-14 12:43:00,23.9,17.7,30.41,NNW,337,0.0,0.0,77,0.00,,,0.00,WUHU21623XXSP,2013-01-14 18:43:00,
2013-01-14 12:48:00,23.7,17.5,30.41,NNW,337,0.0,0.0,76,0.00,,,0.00,WUHU21623XXSP,2013-01-14 18:48:00,
2013-01-14 12:53:00,23.4,16.9,30.41,NNW,337,0.0,0.0,76,0.00,,,0.00,WUHU21623XXSP,2013-01-14 18:53:00,
2013-01-14 12:58:00,23.4,16.9,30.41,NNW,337,0.0,0.0,77,0.00,,,0.00,WUHU21623XXSP,2013-01-14 18:58:00,
2013-01-14 13:03:00,23.5,17.1,30.41,NNW,337,0.0,0.0,76,0.00,,,0.00,WUHU21623XXSP,2013-01-14 19:03:00,
2013-01-14 13:08:00,23.4,16.9,30.41,NNW,337,0.0,0.0,76,0.00,,,0.00,WUHU21623XXSP,2013-01-14 19:08:00,
2013-01-14 13:13:00,23.2,16.7,30.40,NNW,337,0.0,0.0,76,0.00,,,0.00,WUHU21623XXSP,2013-01-14 19:13:00,
2013-01-14 13:18:00,23.4,17.1,30.41,NNW,337,0.0,0.0,76,0.00,,,0.00,WUHU21623XXSP,2013-01-14 19:18:00,
2013-01-14 13:23:00,23.2,16.7,30.42,NNW,337,0.0,0.0,76,0.00,,,0.00,WUHU21623XXSP,2013-01-14 19:23:00,
2013-01-14 13:28:00,23.4,16.9,30.41,NNW,337,0.0,0.0,76,0.00,,,0.00,WUHU21623XXSP,2013-01-14 19:28:00,
2013-01-14 13:33:00,23.4,16.9,30.40,NNW,337,0.0,0.0,76,0.00,,,0.00,WUHU21623XXSP,2013-01-14 19:33:00,
2013-01-14 13:38:00,23.2,16.4,30.39,NNW,337,4.7,4.7,75,0.00,,,0.00,WUHU21623XXSP,2013-01-14 19:38:00,
2013-01-14 13:43:00,23.2,16.4,30.40,NNW,337,1.1,4.7,75,0.00,,,0.00,WUHU21623XXSP,2013-01-14 19:43:00,
2013-01-14 13:48:00,23.2,16.4,30.41,NNW,337,0.0,1.1,75,0.00,,,0.00,WUHU21623XXSP,2013-01-14 19:48:00,
2013-01-14 13:53:00,23.4,16.6,30.41,NNW,337,0.0,0.0,75,0.00,,,0.00,WUHU21623XXSP,2013-01-14 19:53:00,
2013-01-14 13:58:00,23.5,16.8,30.41,NNW,337,0.0,0.0,75,0.00,,,0.00,WUHU21623XXSP,2013-01-14 19:58:00,
2013-01-14 14:03:00,23.5,16.8,30.41,NNW,337,6.7,6.7,75,0.00,,,0.00,WUHU21623XXSP,2013-01-14 20:03:00,
2013-01-14 14:08:00,23.5,16.8,30.42,NNW,337,0.0,6.7,75,0.00,,,0.00,WUHU21623XXSP,2013-01-14 20:08:00,
2013-01-14 14:13:00,23.5,16.8,30.42,NNW,337,0.0,0.0,75,0.00,,,0.00,WUHU21623XXSP,2013-01-14 20:13:00,
2013-01-14 14:18:00,23.7,16.9,30.42,NNW,337,0.0,0.0,75,0.00,,,0.00,WUHU21623XXSP,2013-01-14 20:18:00,
2013-01-14 14:23:00,23.7,16.9,30.42,NNW,337,0.0,0.0,75,0.00,,,0.00,WUHU21623XXSP,2013-01-14 20:23:00,
2013-01-14 14:28:00,23.7,16.9,30.41,NNW,337,3.6,3.6,75,0.00,,,0.00,WUHU21623XXSP,2013-01-14 20:28:00,
2013-01-14 14:33:00,23.7,16.9,30.42,NNW,337,0.0,3.6,75,0.00,,,0.00,WUHU21623XXSP,2013-01-14 20:33:00,
2013-01-14 14:38:00,23.9,17.1,30.42,NNW,337,0.0,0.0,75,0.00,,,0.00,WUHU21623XXSP,2013-01-14 20:38:00,
2013-01-14 14:43:00,23.7,16.6,30.43,NNW,337,2.0,2.0,74,0.00,,,0.00,WUHU21623XXSP,2013-01-14 20:43:00,
2013-01-14 14:48:00,23.7,16.8,30.43,NNW,337,3.4,3.4,73,0.00,,,0.00,WUHU21623XXSP,2013-01-14 20:48:00,
2013-01-14 14:53:00,23.7,16.3,30.44,NNW,337,0.0,3.4,73,0.00,,,0.00,WUHU21623XXSP,2013-01-14 20:53:00,
2013-01-14 14:58:00,24.1,16.6,30.44,NNW,337,0.0,0.0,73,0.00,,,0.00,WUHU21623XXSP,2013-01-14 20:58:00,
2013-01-14 15:03:00,24.1,16.6,30.44,NNW,337,0.0,0.0,73,0.00,,,0.00,WUHU21623XXSP,2013-01-14 21:03:00,
2013-01-14 15:08:00,24.3,16.6,30.44,NNW,337,0.0,0.0,73,0.00,,,0.00,WUHU21623XXSP,2013-01-14 21:08:00,
2013-01-14 15:13:00,24.4,17.0,30.44,NNW,337,0.0,0.0,73,0.00,,,0.00,WUHU21623XXSP,2013-01-14 21:13:00,
2013-01-14 15:18:00,24.1,16.6,30.44,NNW,337,0.0,0.0,73,0.00,,,0.00,WUHU21623XXSP,2013-01-14 21:18:00,
2013-01-14 15:23:00,24.1,16.6,30.44,NNW,337,0.0,0.0,73,0.00,,,0.00,WUHU21623XXSP,2013-01-14 21:23:00,
2013-01-14 15:28:00,24.1,16.6,30.44,NNW,337,0.0,0.0,73,0.00,,,0.00,WUHU21623XXSP,2013-01-14 21:28:00,
2013-01-14 15:33:00,24.4,17.0,30.44,NNW,337,0.0,0.0,73,0.00,,,0.00,WUHU21623XXSP,2013-01-14 21:33:00,
2013-01-14 15:38:00,24.6,17.1,30.44,NNW,337,0.0,0.0,73,0.00,,,0.00,WUHU21623XXSP,2013-01-14 21:38:00,
2013-01-14 15:43:00,24.4,17.1,30.43,NNW,337,0.0,0.0,73,0.00,,,0.00,WUHU21623XXSP,2013-01-14 21:43:00,
2013-01-14 15:48:00,24.4,17.0,30.43,NNW,337,0.0,0.0,73,0.00,,,0.00,WUHU21623XXSP,2013-01-14 21:48:00,
2013-01-14 15:53:00,24.4,16.6,30.43,NNW,337,0.0,0.0,72,0.00,,,0.00,WUHU21623XXSP,2013-01-14 21:53:00,
2013-01-14 15:58:00,24.4,16.6,30.44,NNW,337,0.0,0.0,72,0.00,,,0.00,WUHU21623XXSP,2013-01-14 21:58:00,
2013-01-14 16:04:00,24.4,16.6,30.43,NNW,337,0.0,0.0,72,0.00,,,0.00,WUHU21623XXSP,2013-01-14 22:04:00,
2013-01-14 16:09:00,24.1,16.3,30.43,NNW,337,0.0,0.0,72,0.00,,,0.00,WUHU21623XXSP,2013-01-14 22:09:00,
2013-01-14 16:14:00,24.1,16.3,30.43,NNW,337,0.0,0.0,71,0.00,,,0.00,WUHU21623XXSP,2013-01-14 22:14:00,
2013-01-14 16:19:00,24.1,16.0,30.43,NNW,337,0.0,0.0,71,0.00,,,0.00,WUHU21623XXSP,2013-01-14 22:19:00,
2013-01-14 16:24:00,23.7,15.8,30.43,NNW,337,0.0,0.0,71,0.00,,,0.00,WUHU21623XXSP,2013-01-14 22:24:00,
2013-01-14 16:29:00,23.5,15.5,30.43,NNW,337,0.0,0.0,71,0.00,,,0.00,WUHU21623XXSP,2013-01-14 22:29:00,
2013-01-14 16:34:00,23.5,15.5,30.43,NNW,337,0.0,0.0,71,0.00,,,0.00,WUHU21623XXSP,2013-01-14 22:34:00,
2013-01-14 16:39:00,23.5,15.5,30.42,NNW,337,0.0,0.0,71,0.00,,,0.00,WUHU21623XXSP,2013-01-14 22:39:00,
2013-01-14 16:44:00,23.2,15.2,30.42,NNW,337,0.0,0.0,71,0.00,,,0.00,WUHU21623XXSP,2013-01-14 22:44:00,
2013-01-14 16:49:00,23.0,15.0,30.42,NNW,337,0.0,0.0,71,0.00,,,0.00,WUHU21623XXSP,2013-01-14 22:49:00,
2013-01-14 16:54:00,22.8,14.8,30.42,NNW,337,0.0,0.0,71,0.00,,,0.00,WUHU21623XXSP,2013-01-14 22:54:00,
2013-01-14 16:59:00,22.8,14.8,30.42,NNW,337,0.0,0.0,71,0.00,,,0.00,WUHU21623XXSP,2013-01-14 22:59:00,
2013-01-14 17:04:00,22.5,14.8,30.42,NNW,337,0.0,0.0,72,0.00,,,0.00,WUHU21623XXSP,2013-01-14 23:04:00,
2013-01-14 17:09:00,22.1,14.6,30.42,NNW,337,0.0,0.0,72,0.00,,,0.00,WUHU21623XXSP,2013-01-14 23:09:00,
2013-01-14 17:14:00,22.1,14.6,30.42,NNW,337,0.0,0.0,73,0.00,,,0.00,WUHU21623XXSP,2013-01-14 23:14:00,
2013-01-14 17:19:00,21.9,14.6,30.42,NNW,337,0.0,0.0,73,0.00,,,0.00,WUHU21623XXSP,2013-01-14 23:19:00,
2013-01-14 17:24:00,21.7,14.4,30.42,NNW,337,0.0,0.0,73,0.00,,,0.00,WUHU21623XXSP,2013-01-14 23:24:00,
2013-01-14 17:29:00,21.6,14.2,30.42,NNW,337,0.0,0.0,73,0.00,,,0.00,WUHU21623XXSP,2013-01-14 23:29:00,
2013-01-14 17:34:00,21.4,14.0,30.42,NNW,337,0.0,0.0,73,0.00,,,0.00,WUHU21623XXSP,2013-01-14 23:34:00,
2013-01-14 17:39:00,21.0,14.0,30.41,NNW,337,0.0,0.0,74,0.00,,,0.00,WUHU21623XXSP,2013-01-14 23:39:00,
2013-01-14 17:44:00,21.0,14.0,30.41,NNW,337,0.0,0.0,74,0.00,,,0.00,WUHU21623XXSP,2013-01-14 23:44:00,
2013-01-14 17:49:00,20.8,14.1,30.41,NNW,337,0.0,0.0,75,0.00,,,0.00,WUHU21623XXSP,2013-01-14 23:49:00,
2013-01-14 17:54:00,20.5,13.7,30.42,NNW,337,0.0,0.0,75,0.00,,,0.00,WUHU21623XXSP,2013-01-14 23:54:00,
2013-01-14 17:59:00,20.5,13.7,30.42,NNW,337,0.0,0.0,75,0.00,,,0.00,WUHU21623XXSP,2013-01-14 23:59:00,
2013-01-14 18:04:00,20.3,13.7,30.42,NNW,337,0.0,0.0,75,0.00,,,0.00,WUHU21623XXSP,2013-01-15 00:04:00,
2013-01-14 18:09:00,20.3,13.9,30.42,NNW,337,0.0,0.0,76,0.00,,,0.00,WUHU21623XXSP,2013-01-15 00:09:00,
2013-01-14 18:14:00,19.9,13.5,30.42,NNW,337,0.0,0.0,76,0.00,,,0.00,WUHU21623XXSP,2013-01-15 00:14:00,
2013-01-14 18:19:00,19.9,13.5,30.42,NNW,337,0.0,0.0,76,0.00,,,0.00,WUHU21623XXSP,2013-01-15 00:19:00,
2013-01-14 18:24:00,19.6,13.1,30.42,NNW,337,0.0,0.0,76,0.00,,,0.00,WUHU21623XXSP,2013-01-15 00:24:00,
2013-01-14 18:29:00,19.6,13.4,30.42,NNW,337,0.0,0.0,77,0.00,,,0.00,WUHU21623XXSP,2013-01-15 00:29:00,
2013-01-14 18:34:00,19.6,13.4,30.42,NNW,337,0.0,0.0,77,0.00,,,0.00,WUHU21623XXSP,2013-01-15 00:34:00,
2013-01-14 18:39:00,19.6,13.4,30.42,NNW,337,0.0,0.0,77,0.00,,,0.00,WUHU21623XXSP,2013-01-15 00:39:00,
2013-01-14 18:44:00,19.2,13.1,30.42,NNW,337,0.0,0.0,77,0.00,,,0.00,WUHU21623XXSP,2013-01-15 00:44:00,
2013-01-14 18:49:00,19.2,13.4,30.42,NNW,337,0.0,0.0,78,0.00,,,0.00,WUHU21623XXSP,2013-01-15 00:49:00,
2013-01-14 18:54:00,19.2,13.4,30.42,NNW,337,0.0,0.0,78,0.00,,,0.00,WUHU21623XXSP,2013-01-15 00:54:00,
2013-01-14 18:59:00,19.0,13.2,30.42,NNW,337,0.0,0.0,78,0.00,,,0.00,WUHU21623XXSP,2013-01-15 00:59:00,
2013-01-14 19:04:00,18.9,13.0,30.42,NNW,337,0.0,0.0,78,0.00,,,0.00,WUHU21623XXSP,2013-01-15 01:04:00,
2013-01-14 19:09:00,18.7,12.8,30.42,NNW,337,0.0,0.0,78,0.00,,,0.00,WUHU21623XXSP,2013-01-15 01:09:00,
2013-01-14 19:14:00,18.5,12.7,30.42,NNW,337,0.0,0.0,78,0.00,,,0.00,WUHU21623XXSP,2013-01-15 01:14:00,
2013-01-14 19:19:00,18.3,12.8,30.41,NNW,337,0.0,0.0,79,0.00,,,0.00,WUHU21623XXSP,2013-01-15 01:19:00,
2013-01-14 19:24:00,18.3,12.8,30.41,NNW,337,0.0,0.0,79,0.00,,,0.00,WUHU21623XXSP,2013-01-15 01:24:00,
2013-01-14 19:29:00,18.3,12.8,30.41,NNW,337,0.0,0.0,79,0.00,,,0.00,WUHU21623XXSP,2013-01-15 01:29:00,
2013-01-14 19:34:00,18.1,12.6,30.41,NNW,337,0.0,0.0,79,0.00,,,0.00,WUHU21623XXSP,2013-01-15 01:34:00,
2013-01-14 19:39:00,18.0,12.4,30.41,NNW,337,0.0,0.0,79,0.00,,,0.00,WUHU21623XXSP,2013-01-15 01:39:00,
2013-01-14 19:44:00,18.0,12.7,30.41,NNW,337,0.0,0.0,80,0.00,,,0.00,WUHU21623XXSP,2013-01-15 01:44:00,
2013-01-14 19:49:00,17.8,12.6,30.41,NNW,337,0.0,0.0,80,0.00,,,0.00,WUHU21623XXSP,2013-01-15 01:49:00,
2013-01-14 19:54:00,17.6,12.4,30.41,NNW,337,0.0,0.0,80,0.00,,,0.00,WUHU21623XXSP,2013-01-15 01:54:00,
2013-01-14 19:59:00,17.4,12.2,30.41,NNW,337,0.0,0.0,80,0.00,,,0.00,WUHU21623XXSP,2013-01-15 01:59:00,
2013-01-14 20:04:00,17.4,12.2,30.41,NNW,337,0.0,0.0,80,0.00,,,0.00,WUHU21623XXSP,2013-01-15 02:04:00,
2013-01-14 20:09:00,17.4,12.5,30.41,NNW,337,0.0,0.0,81,0.00,,,0.00,WUHU21623XXSP,2013-01-15 02:09:00,
2013-01-14 20:14:00,17.4,12.5,30.41,NNW,337,0.0,0.0,81,0.00,,,0.00,WUHU21623XXSP,2013-01-15 02:14:00,
2013-01-14 20:19:00,17.4,12.5,30.40,NNW,337,0.0,0.0,81,0.00,,,0.00,WUHU21623XXSP,2013-01-15 02:19:00,
2013-01-14 20:24:00,17.4,12.5,30.40,NNW,337,0.0,0.0,81,0.00,,,0.00,WUHU21623XXSP,2013-01-15 02:24:00,
2013-01-14 20:30:00,17.4,12.5,30.39,NNW,337,0.0,0.0,81,0.00,,,0.00,WUHU21623XXSP,2013-01-15 02:30:00,
2013-01-14 20:35:00,17.4,12.3,30.40,NNW,337,0.0,0.0,81,0.00,,,0.00,WUHU21623XXSP,2013-01-15 02:35:00,
2013-01-14 20:40:00,17.2,12.6,30.40,NNW,337,0.0,0.0,82,0.00,,,0.00,WUHU21623XXSP,2013-01-15 02:40:00,
2013-01-14 20:45:00,17.2,12.6,30.40,NNW,337,0.0,0.0,82,0.00,,,0.00,WUHU21623XXSP,2013-01-15 02:45:00,
2013-01-14 20:50:00,16.9,12.3,30.40,NNW,337,0.0,0.0,82,0.00,,,0.00,WUHU21623XXSP,2013-01-15 02:50:00,
2013-01-14 20:55:00,16.9,12.3,30.40,NNW,337,0.0,0.0,82,0.00,,,0.00,WUHU21623XXSP,2013-01-15 02:55:00,
2013-01-14 21:00:00,16.9,12.3,30.40,NNW,337,0.0,0.0,82,0.00,,,0.00,WUHU21623XXSP,2013-01-15 03:00:00,
2013-01-14 21:05:00,16.7,12.1,30.39,NNW,337,0.0,0.0,82,0.00,,,0.00,WUHU21623XXSP,2013-01-15 03:05:00,
2013-01-14 21:10:00,16.5,12.1,30.39,NNW,337,0.0,0.0,82,0.00,,,0.00,WUHU21623XXSP,2013-01-15 03:10:00,
2013-01-14 21:15:00,16.5,11.9,30.40,NNW,337,0.0,0.0,82,0.00,,,0.00,WUHU21623XXSP,2013-01-15 03:15:00,
2013-01-14 21:20:00,16.5,11.9,30.39,NNW,337,0.0,0.0,82,0.00,,,0.00,WUHU21623XXSP,2013-01-15 03:20:00,
2013-01-14 21:25:00,16.3,11.8,30.40,NNW,337,0.0,0.0,82,0.00,,,0.00,WUHU21623XXSP,2013-01-15 03:25:00,
2013-01-14 21:30:00,16.7,12.2,30.39,NNW,337,0.0,0.0,83,0.00,,,0.00,WUHU21623XXSP,2013-01-15 03:30:00,
2013-01-14 21:35:00,16.7,12.3,30.39,NNW,337,0.0,0.0,83,0.00,,,0.00,WUHU21623XXSP,2013-01-15 03:35:00,
2013-01-14 21:40:00,16.9,12.5,30.39,NNW,337,0.0,0.0,83,0.00,,,0.00,WUHU21623XXSP,2013-01-15 03:40:00,
2013-01-14 21:45:00,17.2,12.8,30.39,NNW,337,0.0,0.0,83,0.00,,,0.00,WUHU21623XXSP,2013-01-15 03:45:00,
2013-01-14 21:50:00,17.2,12.8,30.39,NNW,337,0.0,0.0,83,0.00,,,0.00,WUHU21623XXSP,2013-01-15 03:50:00,
2013-01-14 21:55:00,17.2,12.8,30.39,NNW,337,0.0,0.0,83,0.00,,,0.00,WUHU21623XXSP,2013-01-15 03:55:00,
2013-01-14 22:00:00,17.2,12.8,30.39,NNW,337,0.0,0.0,83,0.00,,,0.00,WUHU21623XXSP,2013-01-15 04:00:00,
2013-01-14 22:05:00,17.1,12.7,30.40,NNW,337,0.0,0.0,83,0.00,,,0.00,WUHU21623XXSP,2013-01-15 04:05:00,
2013-01-14 22:10:00,17.1,12.7,30.39,NNW,337,0.0,0.0,83,0.00,,,0.00,WUHU21623XXSP,2013-01-15 04:10:00,
2013-01-14 22:15:00,16.9,12.5,30.39,NNW,337,0.0,0.0,83,0.00,,,0.00,WUHU21623XXSP,2013-01-15 04:15:00,
2013-01-14 22:20:00,16.9,12.5,30.39,NNW,337,0.0,0.0,83,0.00,,,0.00,WUHU21623XXSP,2013-01-15 04:20:00,
2013-01-14 22:25:00,16.7,12.3,30.39,NNW,337,0.0,0.0,83,0.00,,,0.00,WUHU21623XXSP,2013-01-15 04:25:00,
2013-01-14 22:30:00,16.5,12.2,30.39,NNW,337,0.0,0.0,83,0.00,,,0.00,WUHU21623XXSP,2013-01-15 04:30:00,
2013-01-14 22:35:00,16.3,12.0,30.39,NNW,337,0.0,0.0,83,0.00,,,0.00,WUHU21623XXSP,2013-01-15 04:35:00,
2013-01-14 22:40:00,16.3,12.0,30.39,NNW,337,0.0,0.0,83,0.00,,,0.00,WUHU21623XXSP,2013-01-15 04:40:00,
2013-01-14 22:45:00,16.0,11.7,30.40,NNW,337,0.0,0.0,83,0.00,,,0.00,WUHU21623XXSP,2013-01-15 04:45:00,
2013-01-14 22:50:00,16.0,11.7,30.40,NNW,337,0.0,0.0,83,0.00,,,0.00,WUHU21623XXSP,2013-01-15 04:50:00,
2013-01-14 22:55:00,15.8,11.5,30.40,NNW,337,0.0,0.0,83,0.00,,,0.00,WUHU21623XXSP,2013-01-15 04:55:00,
2013-01-14 23:00:00,15.8,11.5,30.40,NNW,337,0.0,0.0,83,0.00,,,0.00,WUHU21623XXSP,2013-01-15 05:00:00,
2013-01-14 23:01:00,15.8,11.5,30.40,NNW,337,0.0,0.0,83,0.00,,,0.00,WUHU21623XXSP,2013-01-15 05:01:00,
2013-01-14 23:06:00,15.8,11.8,30.40,NNW,337,0.0,0.0,84,0.00,,,0.00,WUHU21623XXSP,2013-01-15 05:06:00,
2013-01-14 23:12:00,15.8,11.8,30.40,NNW,337,0.0,0.0,84,0.00,,,0.00,WUHU21623XXSP,2013-01-15 05:12:00,
2013-01-14 23:17:00,15.8,11.8,30.40,NNW,337,0.0,0.0,84,0.00,,,0.00,WUHU21623XXSP,2013-01-15 05:17:00,
2013-01-14 23:22:00,15.6,11.6,30.40,NNW,337,0.0,0.0,84,0.00,,,0.00,WUHU21623XXSP,2013-01-15 05:22:00,
2013-01-14 23:27:00,15.6,11.3,30.40,NNW,337,0.0,0.0,83,0.00,,,0.00,WUHU21623XXSP,2013-01-15 05:27:00,
2013-01-14 23:32:00,15.6,11.3,30.40,NNW,337,0.0,0.0,83,0.00,,,0.00,WUHU21623XXSP,2013-01-15 05:32:00,
2013-01-14 23:37:00,15.6,11.3,30.40,NNW,337,0.0,0.0,83,0.00,,,0.00,WUHU21623XXSP,2013-01-15 05:37:00,
2013-01-14 23:42:00,15.6,11.3,30.41,NNW,337,0.0,0.0,83,0.00,,,0.00,WUHU21623XXSP,2013-01-15 05:42:00,
2013-01-14 23:47:00,15.4,11.2,30.40,NNW,337,0.0,0.0,83,0.00,,,0.00,WUHU21623XXSP,2013-01-15 05:47:00,
2013-01-14 23:52:00,15.4,11.2,30.40,NNW,337,0.0,0.0,83,0.00,,,0.00,WUHU21623XXSP,2013-01-15 05:52:00,
2013-01-14 23:57:00,15.4,11.4,30.41,NNW,337,0.0,0.0,84,0.00,,,0.00,WUHU21623XXSP,2013-01-15 05:57:00,